Location: Heathcote
(40.9845°N, 73.7746°W)
Time: 06:08:35
(UTC+00:00)

Cosmos 2058 Rocket - Pass Details

Date: 29 October 2020
Orbit: 610 x 639 km, 82.5° (Epoch: 27 November)

Event Time Altitude Azimuth Distance (km) Brightness Sun altitude
Rises 23:07:32 0° 200° (SSW) 2,914 6.9 -14.4°
Reaches altitude 10° 23:09:49 10° 206° (SSW) 2,014 6.1 -14.8°
Maximum altitude 23:14:08 48° 281° (W) 832 4.1 -15.6°
Drops below altitude 10° 23:18:32 10° 357° (N) 2,039 5.7 -16.5°
Sets 23:20:51 0° 3° (N) 2,953 6.5 -16.9°
